GW1515 Weather Reports


time (UTC)temp
F
wind
direction
speed
knots
gust
knots
rain 1hr
in
rain 24hr
in
rain mn
in
humidity
%
barometer
mb
20260509161823 68 253 3.5 7.8 0.00 0.00 0.00 65 1005.1
20260509161319 67 236 4.3 9.6 0.00 0.00 0.00 65 1004.9
20260509160815 66 233 7.8 11.3 0.00 0.00 0.00 67 1004.9
20260509160311 66 300 1.7 13.0 0.00 0.00 0.00 69 1005.0
20260509155806 65 231 6.1 13.9 0.00 0.00 0.00 68 1005.1
20260509155306 66 253 2.6 7.8 0.00 0.00 0.00 69 1005.0
20260509154759 65 212 6.1 13.9 0.00 0.00 0.00 70 1004.9
20260509154256 64 256 8.7 13.0 0.00 0.00 0.00 70 1005.2
20260509153753 64 210 8.7 13.0 0.00 0.00 0.00 72 1005.0
20260509153249 64 228 4.3 10.4 0.00 0.00 0.00 72 1005.1
20260509152746 64 214 1.7 13.9 0.00 0.00 0.00 72 1005.1
20260509152242 64 258 7.8 7.8 0.00 0.00 0.00 72 1005.2
20260509151739 64 251 3.5 7.8 0.00 0.00 0.00 72 1005.2
20260509151236 64 261 3.5 8.7 0.00 0.00 0.00 72 1005.2
20260509150734 64 261 2.6 8.7 0.00 0.00 0.00 73 1005.3
20260509150232 63 246 5.2 9.6 0.00 0.00 0.00 74 1005.2
20260509145728 62 241 6.1 11.3 0.00 0.00 0.00 74 1005.2
20260509145223 62 214 7.0 16.5 0.00 0.00 0.00 75 1004.9
20260509144719 62 222 11.3 11.3 0.00 0.00 0.00 77 1005.0
20260509144216 61 257 5.2 11.3 0.00 0.00 0.00 78 1004.9
20260509143714 60 253 7.8 9.6 0.00 0.00 0.00 79 1004.9
20260509143211 60 210 3.5 14.8 0.00 0.00 0.00 80 1005.1
20260509142706 60 240 6.1 15.6 0.00 0.00 0.00 79 1004.9
20260509142203 60 232 4.3 8.7 0.00 0.00 0.00 80 1005.2
20260509141659 60 241 5.2 10.4 0.00 0.00 0.00 80 1005.2
20260509141156 59 238 8.7 13.0 0.00 0.00 0.00 81 1005.3
20260509140652 60 247 4.3 8.7 0.00 0.00 0.00 80 1005.1
20260509140151 59 232 4.3 13.0 0.00 0.00 0.00 81 1005.0
20260509135648 59 240 6.1 13.9 0.00 0.00 0.00 82 1004.8
20260509135146 58 227 4.3 9.6 0.00 0.00 0.00 83 1004.9
20260509134642 58 212 0.9 9.6 0.00 0.00 0.00 83 1004.8
20260509134139 58 224 4.3 7.0 0.00 0.00 0.00 82 1004.9
20260509133636 58 252 3.5 14.8 0.00 0.00 0.00 83 1004.9
20260509133134 58 241 4.3 8.7 0.00 0.00 0.00 83 1005.2
20260509132632 57 214 5.2 13.9 0.00 0.00 0.00 84 1005.1
20260509132130 57 201 7.0 10.4 0.00 0.00 0.00 84 1005.1
20260509131626 57 258 6.1 20.9 0.00 0.00 0.00 85 1005.0
20260509131123 57 228 2.6 8.7 0.00 0.00 0.00 85 1004.7
20260509130619 57 233 2.6 10.4 0.00 0.00 0.00 87 1005.0
20260509130115 56 241 1.7 7.0 0.00 0.00 0.00 88 1004.7
20260509125612 55 242 3.5 12.2 0.00 0.00 0.00 90 1005.0
20260509125109 55 204 7.8 7.8 0.00 0.00 0.00 91 1005.0
20260509124605 54 214 3.5 8.7 0.00 0.00 0.00 92 1004.9
20260509124102 54 194 6.1 10.4 0.00 0.00 0.00 94 1005.0
20260509123600 53 252 6.1 11.3 0.00 0.00 0.00 95 1005.0
20260509123056 53 220 1.7 6.1 0.00 0.00 0.00 96 1004.8
20260509122552 52 217 2.6 7.8 0.00 0.00 0.00 97 1004.8
20260509122050 51 210 6.1 12.2 0.00 0.00 0.00 97 1005.1
20260509121546 51 169 2.6 8.7 0.00 0.00 0.00 98 1004.8
20260509121048 52 182 6.1 7.8 0.00 0.00 0.00 98 1004.8
20260509120542 51 207 0.9 7.0 0.00 0.00 0.00 99 1004.8
20260509120040 51 194 4.3 7.8 0.00 0.00 0.00 99 1004.7
20260509115536 51 204 7.8 10.4 0.00 0.00 0.00 99 1005.0
20260509115034 50 225 2.6 2.6 0.00 0.00 0.00 99 1005.0
20260509114532 50 275 2.6 6.1 0.00 0.00 0.00 99 1005.0
20260509114031 50 331 1.7 6.1 0.00 0.00 0.00 99 1004.5
20260509113529 50 220 5.2 7.8 0.00 0.00 0.00 99 1004.1
20260509113027 50 202 4.3 7.8 0.00 0.00 0.00 99 1004.2
20260509112523 50 204 1.7 7.8 0.00 0.00 0.00 99 1004.0
20260509112019 50 207 4.3 9.6 0.00 0.00 0.00 99 1004.0
20260509111517 50 223 4.3 10.4 0.00 0.00 0.00 99 1004.1
20260509111014 50 214 4.3 11.3 0.00 0.00 0.00 99 1004.3
20260509110510 50 209 4.3 7.8 0.00 0.00 0.00 99 1004.3
20260509110008 50 212 3.5 11.3 0.00 0.00 0.00 99 1004.1
20260509105506 50 197 7.8 13.0 0.00 0.00 0.00 99 1004.3
20260509105004 50 207 8.7 9.6 0.00 0.00 0.00 99 1004.2
20260509104500 50 173 2.6 9.6 0.00 0.00 0.00 99 1004.3
20260509103957 50 137 1.7 11.3 0.00 0.00 0.00 99 1004.2
20260509103455 50 173 4.3 7.0 0.00 0.00 0.00 99 1004.4
20260509102953 50 194 4.3 11.3 0.00 0.00 0.00 99 1004.2
20260509102450 50 203 5.2 8.7 0.00 0.00 0.00 99 1004.6
20260509101946 50 189 2.6 8.7 0.00 0.00 0.00 98 1004.5
20260509101442 50 192 2.6 7.8 0.00 0.00 0.00 98 1004.7
20260509100940 50 213 3.5 8.7 0.00 0.00 0.00 98 1004.5
20260509100437 50 201 7.8 9.6 0.00 0.00 0.00 98 1004.6
20260509095933 50 202 1.7 11.3 0.00 0.00 0.00 98 1004.8
20260509095431 50 201 5.2 10.4 0.00 0.00 0.00 98 1004.6
20260509094928 50 193 7.8 10.4 0.00 0.00 0.00 98 1004.8
20260509094424 50 197 1.7 7.8 0.00 0.00 0.00 98 1004.7
20260509093922 50 203 2.6 7.0 0.00 0.00 0.00 98 1004.8
20260509093419 50 202 3.5 6.1 0.00 0.00 0.00 98 1004.8
20260509092917 50 181 1.7 8.7 0.00 0.00 0.00 98 1004.6
20260509092415 50 214 4.3 8.7 0.00 0.00 0.00 98 1005.0
20260509091913 50 192 1.7 5.2 0.00 0.00 0.00 98 1004.9
20260509091409 50 211 1.7 6.1 0.00 0.00 0.00 98 1004.9
20260509090907 50 212 6.1 7.8 0.00 0.00 0.00 98 1005.0
20260509090404 50 195 3.5 6.1 0.00 0.00 0.00 97 1005.3
20260509085901 51 222 2.6 6.1 0.00 0.00 0.00 97 1005.0
20260509085358 51 212 4.3 7.0 0.00 0.00 0.00 97 1005.0
20260509084854 51 216 1.7 7.8 0.00 0.00 0.00 97 1005.2
20260509084351 51 211 4.3 7.0 0.00 0.00 0.00 97 1005.0
20260509083849 51 254 0.9 6.1 0.00 0.00 0.00 97 1005.1
20260509083346 51 211 2.6 6.1 0.00 0.00 0.00 97 1005.2
20260509082842 51 208 2.6 7.0 0.00 0.00 0.00 97 1005.0
20260509082339 51 203 2.6 6.1 0.00 0.00 0.00 96 1005.2
20260509081837 51 199 4.3 6.1 0.00 0.00 0.00 96 1004.9
20260509081333 51 208 2.6 5.2 0.00 0.00 0.00 96 1005.0
20260509080832 51 197 2.6 8.7 0.00 0.00 0.00 96 1004.9
20260509080329 51 214 3.5 7.0 0.00 0.00 0.00 96 1005.1
20260509075827 51 216 6.1 8.7 0.00 0.00 0.00 96 1005.0
20260509075324 51 211 5.2 7.8 0.00 0.00 0.00 95 1004.9
20260509074821 51 220 1.7 7.8 0.00 0.00 0.00 95 1005.2
20260509074319 51 226 2.6 6.1 0.00 0.00 0.00 95 1005.0
20260509073815 51 200 5.2 7.8 0.00 0.00 0.00 95 1005.2
20260509073311 51 210 4.3 7.8 0.00 0.00 0.00 95 1005.2
20260509072808 51 215 3.5 6.1 0.00 0.00 0.00 94 1005.3
20260509072306 51 206 3.5 3.5 0.00 0.00 0.00 94 1005.6
20260509071801 52 220 4.3 5.2 0.00 0.00 0.00 94 1005.6
20260509071258 52 210 1.7 7.8 0.00 0.00 0.00 94 1005.5
20260509070755 52 205 4.3 7.8 0.00 0.00 0.00 94 1005.4
20260509070252 52 239 1.7 5.2 0.00 0.00 0.00 93 1005.7
20260509065748 52 210 6.1 10.4 0.00 0.00 0.00 93 1005.6
20260509065245 52 210 4.3 7.8 0.00 0.00 0.00 93 1005.5
20260509064741 52 229 2.6 9.6 0.00 0.00 0.00 92 1005.6
20260509064239 52 201 4.3 8.7 0.00 0.00 0.00 93 1005.7
20260509063736 52 221 1.7 7.0 0.00 0.00 0.00 92 1005.8
20260509063232 53 253 1.7 7.8 0.00 0.00 0.00 92 1005.6
20260509062729 53 218 3.5 9.6 0.00 0.00 0.00 92 1005.7
20260509062226 53 224 2.6 5.2 0.00 0.00 0.00 92 1005.7
20260509061723 53 211 4.3 10.4 0.00 0.00 0.00 92 1005.6
20260509061221 53 269 0.0 4.3 0.00 0.00 0.00 92 1005.8
20260509060719 53 220 4.3 5.2 0.00 0.00 0.00 92 1006.1
20260509060214 53 192 2.6 8.7 0.00 0.00 0.00 91 1006.2
20260509055710 53 186 2.6 4.3 0.00 0.00 0.00 91 1006.1
20260509055206 53 209 1.7 6.1 0.00 0.00 0.00 91 1006.5
20260509054703 53 247 2.6 5.2 0.00 0.00 0.00 91 1006.3
20260509054201 53 241 1.7 6.1 0.00 0.00 0.00 91 1006.5
20260509053659 53 201 5.2 5.2 0.00 0.00 0.00 91 1006.3
20260509053155 54 199 4.3 7.0 0.00 0.00 0.00 90 1006.2
20260509052653 54 243 2.6 13.0 0.00 0.00 0.00 90 1006.2
20260509052151 54 216 2.6 8.7 0.00 0.00 0.00 90 1006.3
20260509051648 54 206 8.7 9.6 0.00 0.00 0.00 90 1006.5
20260509051145 54 214 2.6 3.5 0.00 0.00 0.00 90 1006.3
20260509050642 54 207 2.6 8.7 0.00 0.00 0.00 90 1006.1
20260509050139 55 209 3.5 8.7 0.00 0.00 0.00 89 1006.0
20260509045636 55 212 3.5 10.4 0.00 0.00 0.00 89 1006.2
20260509045133 55 204 3.5 7.0 0.00 0.00 0.00 89 1006.2
20260509044630 55 213 3.5 7.8 0.00 0.00 0.00 89 1006.5
20260509044128 55 208 4.3 7.8 0.00 0.00 0.00 88 1006.4
20260509043624 55 238 1.7 7.8 0.00 0.00 0.00 88 1006.5
20260509043120 55 213 3.5 5.2 0.00 0.00 0.00 88 1006.5
20260509042616 55 203 6.1 10.4 0.00 0.00 0.00 87 1006.7
20260509042112 55 201 2.6 7.0 0.00 0.00 0.00 87 1006.5
20260509041609 55 225 0.9 6.1 0.00 0.00 0.00 86 1006.4
20260509041107 55 203 2.6 7.8 0.00 0.00 0.00 86 1006.6
20260509040605 56 225 3.5 8.7 0.00 0.00 0.00 85 1006.4
20260509035558 56 199 3.5 7.8 0.00 0.00 0.00 84 1006.6
20260509035055 56 217 7.0 11.3 0.00 0.00 0.00 83 1006.6
20260509034553 56 166 7.0 8.7 0.00 0.00 0.00 83 1006.6
20260509034050 57 194 2.6 13.0 0.00 0.00 0.00 82 1006.7
20260509033547 57 187 6.1 9.6 0.00 0.00 0.00 81 1006.7
20260509033044 57 221 4.3 7.0 0.00 0.00 0.00 80 1006.6
20260509032541 57 244 4.3 12.2 0.00 0.00 0.00 79 1007.0
20260509032038 57 223 5.2 10.4 0.00 0.00 0.00 79 1006.6
20260509031536 57 218 4.3 9.6 0.00 0.00 0.00 78 1006.5
20260509031033 57 209 1.7 11.3 0.00 0.00 0.00 77 1006.6
20260509030531 58 210 5.2 11.3 0.00 0.00 0.00 77 1006.8
20260509030027 58 204 2.6 9.6 0.00 0.00 0.00 76 1006.7
20260509025523 58 178 1.7 11.3 0.00 0.00 0.00 76 1006.8
20260509025019 58 220 1.7 7.8 0.00 0.00 0.00 76 1006.7
20260509024515 58 225 1.7 8.7 0.00 0.00 0.00 76 1006.6
20260509024012 58 197 2.6 6.1 0.00 0.00 0.00 76 1006.8
20260509023509 58 246 0.0 7.8 0.00 0.00 0.00 76 1006.7
20260509023006 58 199 2.6 7.8 0.00 0.00 0.00 76 1007.0
20260509022502 58 210 2.6 6.1 0.00 0.00 0.00 76 1006.8
20260509022000 59 188 0.9 6.1 0.00 0.00 0.00 75 1006.9
20260509021457 59 212 2.6 7.0 0.00 0.00 0.00 75 1007.0
20260509020954 59 215 6.1 8.7 0.00 0.00 0.00 75 1007.0
20260509020453 59 215 7.0 8.7 0.00 0.00 0.00 74 1006.7
20260509015949 59 213 4.3 6.1 0.00 0.00 0.00 74 1006.5
20260509015448 60 208 2.6 7.0 0.00 0.00 0.00 73 1006.6
20260509014944 60 183 5.2 7.8 0.00 0.00 0.00 72 1006.3
20260509014441 60 195 5.2 8.7 0.00 0.00 0.00 70 1006.3
20260509013937 60 173 3.5 9.6 0.00 0.00 0.00 69 1006.3
20260509013434 60 220 6.1 10.4 0.00 0.00 0.00 66 1006.6
20260509012930 61 177 2.6 6.1 0.00 0.00 0.00 63 1006.2
20260509012427 61 207 2.6 5.2 0.00 0.00 0.00 61 1006.5
20260509011924 61 146 1.7 3.5 0.00 0.00 0.00 60 1006.2
20260509011421 62 214 2.6 3.5 0.00 0.00 0.00 60 1006.2
20260509010919 62 169 1.7 3.5 0.00 0.00 0.00 59 1006.1
20260509010416 62 215 1.7 4.3 0.00 0.00 0.00 59 1006.4
20260509005913 62 274 1.7 7.8 0.00 0.00 0.00 59 1006.4
20260509005411 62 200 3.5 6.1 0.00 0.00 0.00 58 1006.3
20260509004911 63 239 2.6 6.1 0.00 0.00 0.00 58 1006.2
20260509004408 63 226 3.5 7.8 0.00 0.00 0.00 57 1006.4
20260509003906 63 233 1.7 5.2 0.00 0.00 0.00 57 1006.3
20260509003403 63 212 2.6 6.1 0.00 0.00 0.00 56 1006.2
20260509002900 63 235 2.6 6.1 0.00 0.00 0.00 56 1006.3
20260509002358 64 192 2.6 4.3 0.00 0.00 0.00 54 1006.3
20260509001855 64 211 2.6 7.0 0.00 0.00 0.00 54 1006.4
20260509001351 64 196 3.5 4.3 0.00 0.00 0.00 54 1006.3
20260509000848 64 240 1.7 7.0 0.00 0.00 0.00 54 1006.5
20260509000348 64 207 1.7 4.3 0.00 0.00 0.00 54 1006.4
20260508235842 64 211 2.6 5.2 0.00 0.00 0.00 53 1006.4
20260508235339 64 234 0.0 7.8 0.00 0.00 0.00 54 1006.4
20260508234836 65 208 3.5 5.2 0.00 0.00 0.00 53 1006.4
20260508234333 65 228 2.6 4.3 0.00 0.00 0.00 52 1006.5
20260508233831 66 235 2.6 7.0 0.00 0.00 0.00 51 1006.5
20260508233330 66 212 0.9 7.0 0.00 0.00 0.00 52 1006.5
20260508232826 66 214 2.6 7.0 0.00 0.00 0.00 52 1006.5
20260508232323 65 252 5.2 9.6 0.00 0.00 0.00 52 1006.5
20260508231822 66 207 2.6 7.8 0.00 0.00 0.00 52 1006.4
20260508231317 67 213 2.6 4.3 0.00 0.00 0.00 51 1006.4
20260508230814 66 233 2.6 7.0 0.00 0.00 0.00 52 1006.5
20260508230311 66 222 1.7 4.3 0.00 0.00 0.00 52 1006.5
20260508225809 67 221 2.6 6.1 0.00 0.00 0.00 50 1006.6
20260508225306 67 245 2.6 7.8 0.00 0.00 0.00 49 1006.4
20260508224803 66 243 3.5 8.7 0.00 0.00 0.00 48 1006.5
20260508224300 66 205 2.6 6.1 0.00 0.00 0.00 47 1006.6
20260508223758 67 203 3.5 6.1 0.00 0.00 0.00 46 1006.4
20260508223255 67 206 5.2 7.8 0.00 0.00 0.00 46 1006.7
20260508222752 68 235 2.6 5.2 0.00 0.00 0.00 47 1006.6
20260508222249 67 237 1.7 7.8 0.00 0.00 0.00 47 1006.6
20260508221746 66 216 2.6 5.2 0.00 0.00 0.00 50 1006.6
20260508221242 66 198 7.8 9.6 0.00 0.00 0.00 49 1006.7
20260508220738 66 230 5.2 10.4 0.00 0.00 0.00 47 1006.7
20260508220234 67 268 2.6 9.6 0.00 0.00 0.00 47 1006.8
20260508215731 66 242 2.6 6.1 0.00 0.00 0.00 50 1006.7
20260508215227 66 230 4.3 11.3 0.00 0.00 0.00 49 1006.8
20260508214725 68 207 8.7 11.3 0.00 0.00 0.00 48 1006.7
20260508214222 66 208 5.2 6.1 0.00 0.00 0.00 49 1006.8
20260508213718 66 195 7.0 10.4 0.00 0.00 0.00 52 1006.8
20260508213215 66 219 3.5 7.8 0.00 0.00 0.00 52 1006.5
20260508212712 66 224 6.1 7.8 0.00 0.00 0.00 50 1006.5
20260508212208 68 165 0.9 4.3 0.00 0.00 0.00 50 1006.6
20260508211704 66 216 1.7 9.6 0.00 0.00 0.00 54 1006.9
20260508211200 65 125 1.7 7.8 0.00 0.00 0.00 54 1006.9
20260508210657 65 60 1.7 7.0 0.00 0.00 0.00 56 1006.8
20260508210154 65 150 4.3 7.8 0.00 0.00 0.00 55 1006.8
20260508205651 65 211 4.3 7.0 0.00 0.00 0.00 56 1007.0
20260508205147 65 196 2.6 7.0 0.00 0.00 0.00 56 1007.0
20260508204644 66 186 1.7 7.8 0.00 0.00 0.00 55 1007.1
20260508204140 66 179 3.5 8.7 0.00 0.00 0.00 55 1007.0
20260508203636 66 181 3.5 10.4 0.00 0.00 0.00 56 1007.0
20260508203132 68 139 4.3 8.7 0.00 0.00 0.00 51 1007.1
20260508202629 67 135 1.7 7.8 0.00 0.00 0.00 51 1007.2
20260508202126 67 212 7.8 11.3 0.00 0.00 0.00 50 1007.3
20260508201623 67 186 2.6 5.2 0.00 0.00 0.00 51 1007.4
20260508201119 66 161 0.9 7.8 0.00 0.00 0.00 52 1007.3
20260508200616 67 213 3.5 7.0 0.00 0.00 0.00 51 1007.6
20260508200112 67 221 4.3 5.2 0.00 0.00 0.00 49 1007.8
20260508195609 67 199 2.6 6.1 0.00 0.00 0.00 49 1007.7
20260508195105 66 205 6.1 6.1 0.00 0.00 0.00 51 1007.7
20260508194602 68 196 4.3 5.2 0.00 0.00 0.00 45 1007.8
20260508194059 68 240 1.7 4.3 0.00 0.00 0.00 44 1008.2
20260508193556 67 206 4.3 7.8 0.00 0.00 0.00 46 1008.0
20260508193053 66 187 1.7 6.1 0.00 0.00 0.00 50 1007.9
20260508192549 65 165 2.6 8.7 0.00 0.00 0.00 54 1008.1
20260508192046 64 123 4.3 7.8 0.00 0.00 0.00 54 1008.2
20260508191543 64 114 5.2 7.0 0.00 0.00 0.00 54 1008.4
20260508191039 66 211 2.6 7.0 0.00 0.00 0.00 53 1008.2
20260508190537 66 125 2.6 8.7 0.00 0.00 0.00 50 1008.4
20260508190033 65 139 7.8 9.6 0.00 0.00 0.00 52 1008.4
20260508185531 65 177 3.5 5.2 0.00 0.00 0.00 50 1008.4
20260508185028 65 110 3.5 9.6 0.00 0.00 0.00 48 1008.4
20260508184526 65 194 2.6 6.1 0.00 0.00 0.00 54 1008.4
20260508184022 65 133 8.7 9.6 0.00 0.00 0.00 56 1008.7
20260508183519 68 54 0.9 2.6 0.00 0.00 0.00 50 1008.7
20260508183015 66 177 2.6 6.1 0.00 0.00 0.00 51 1008.8
20260508182511 66 186 4.3 8.7 0.00 0.00 0.00 52 1008.8
20260508182008 65 240 1.7 7.8 0.00 0.00 0.00 59 1008.8
20260508181503 64 116 4.3 6.1 0.00 0.00 0.00 60 1009.1
20260508181001 64 144 2.6 8.7 0.00 0.00 0.00 62 1008.9
20260508180458 64 119 4.3 10.4 0.00 0.00 0.00 62 1009.0
20260508175954 64 139 2.6 8.7 0.00 0.00 0.00 60 1009.1
20260508175450 65 195 4.3 6.1 0.00 0.00 0.00 60 1009.0
20260508174948 64 185 2.6 7.0 0.00 0.00 0.00 60 1009.3
20260508174445 64 205 5.2 6.1 0.00 0.00 0.00 59 1009.3
20260508173942 64 91 0.9 6.1 0.00 0.00 0.00 59 1009.1
20260508173439 64 191 1.7 7.0 0.00 0.00 0.00 61 1009.3
20260508172935 65 165 3.5 5.2 0.00 0.00 0.00 60 1009.3
20260508172432 65 152 5.2 6.1 0.00 0.00 0.00 61 1009.6
20260508171928 64 194 7.0 9.6 0.00 0.00 0.00 63 1009.9
20260508171425 64 200 3.5 7.8 0.00 0.00 0.00 64 1009.8
20260508170922 64 194 3.5 6.1 0.00 0.00 0.00 67 1009.7
20260508170419 64 205 5.2 8.7 0.00 0.00 0.00 66 1010.1
20260508165916 63 231 7.0 7.0 0.00 0.00 0.00 67 1009.9
20260508165414 64 191 5.2 8.7 0.00 0.00 0.00 65 1010.1
20260508164909 63 156 3.5 7.8 0.00 0.00 0.00 67 1009.9
20260508164407 63 203 1.7 7.8 0.00 0.00 0.00 66 1010.1
20260508163904 62 180 0.9 7.0 0.00 0.00 0.00 71 1010.2
20260508163402 62 163 1.7 7.8 0.00 0.00 0.00 69 1010.4
20260508162857 61 219 4.3 9.6 0.00 0.00 0.00 71 1010.4
20260508162354 61 163 4.3 5.2 0.00 0.00 0.00 70 1010.5